Location: Bourguignon
(49.5441°N, 3.1585°E)
Time: 15:03:55
(UTC+00:00)

Cosmos 2221 - Pass Details

Date: 15 May 2026
Orbit: 569 x 587 km, 82.5° (Epoch: 10 June)

Event Time Altitude Azimuth Distance (km) Brightness Sun altitude
Exits shadow 22:03:28 21° 98° (E) 1,335 4.0 -17.9°
Maximum altitude 22:04:00 21° 87° (E) 1,317 4.0 -17.9°
Drops below altitude 10° 22:07:11 10° 38° (NE) 1,905 5.4 -18.1°
Sets 22:09:46 0° 22° (NNE) 2,814 6.6 -18.3°
